Flag for Austria Weather past 2 weeks in Linz, Upper Austria, Austria

Now
68 °F

Broken clouds.


Feels Like: 68 °F
Forecast: 63 / 77 °F
Wind: 9 mph from Northwest

Location: Linz / Hoersching-Flughafen

Current Time: Jul 28, 2014 at 11:08:36 AM

Latest Report: Jul 28, 2014 at 10:20 AM


Visibility: N/A

Pressure: 29.92 "Hg

Humidity: 78%

Dew point: 61 °F

Location of LinzLocation

Historic Weather in Linz — Graph

°F

Linz temperature yesterday

Maximum temperature yesterday: 79 °F (at 3:50 PM)
Minimum temperature yesterday: 63 °F (at 1:50 AM)
Average temperature yesterday: 70 °F

Past Weeks' High & Low Weather Summary

 TemperatureHumidityPressure
High95 °F (Jul 20, 4:50 PM)100% (Jul 14, 4:20 AM)30.18 "Hg (Jul 14, 4:20 AM)
Low52 °F (Jul 24, 5:20 AM)23% (Jul 20, 4:50 PM)29.77 "Hg (Jul 20, 4:20 PM)
Average70 °F71%29.97 "Hg
* Reported Jul 13 9:20 AM — Jul 28 9:50 AM, Linz, Weather by CustomWeather, © 2014

Note: Actual official high and low records may vary slightly from our data, if they occured in-between our weather recording intervals... More about our weather records

Advertising

Linz weather history for previous 24 hours

 ConditionsComfort  
Time TempWeatherWind HumidityBarometerVisibility
9:50 AM
Jul 28
68 °FBroken clouds.9 mph78%29.92 "HgN/A
9:20 AM68 °FPartly sunny.9 mph78%29.95 "HgN/A
8:50 AM66 °FPartly sunny.9 mph83%29.95 "HgN/A
8:20 AM66 °FPartly sunny.8 mph83%29.95 "HgN/A
7:50 AM66 °FPartly sunny.9 mph83%29.95 "HgN/A
7:20 AM66 °FBroken clouds.10 mph83%29.95 "HgN/A
6:50 AM66 °FPartly sunny.9 mph83%29.95 "HgN/A
6:20 AM64 °FPartly cloudy.10 mph88%29.95 "HgN/A
5:50 AM64 °FPassing clouds.9 mph88%29.95 "HgN/A
5:20 AM64 °FPassing clouds.8 mph88%29.95 "HgN/A
4:50 AM66 °FPassing clouds.7 mph83%29.95 "HgN/A
4:20 AM64 °FPassing clouds.7 mph88%29.95 "HgN/A
3:50 AM66 °FPassing clouds.9 mph83%29.95 "HgN/A
3:20 AM66 °FPassing clouds.10 mph88%29.95 "HgN/A
2:50 AM66 °FPassing clouds.10 mph88%29.95 "HgN/A
2:20 AM66 °FPassing clouds.7 mph88%29.95 "HgN/A
1:50 AM66 °FPassing clouds.8 mph88%29.95 "HgN/A
1:20 AM66 °FPassing clouds.7 mph88%29.95 "HgN/A
12:50 AM66 °FMild.7 mph88%29.95 "HgN/A
12:20 AM66 °FClear.5 mph88%29.95 "Hg10 mi
11:50 PM
Jul 27
68 °FMild.8 mph83%29.98 "HgN/A
11:20 PM68 °FMild.10 mph83%29.95 "HgN/A
10:50 PM68 °FPassing clouds.8 mph83%29.95 "HgN/A
10:20 PM70 °FPassing clouds.9 mph78%29.95 "HgN/A
9:50 PM72 °FPassing clouds.9 mph73%29.95 "HgN/A
9:20 PM72 °FPartly sunny.7 mph69%29.95 "HgN/A
8:50 PM73 °FPartly sunny.8 mph65%29.95 "HgN/A
8:20 PM75 °FBroken clouds.8 mph65%29.95 "HgN/A
7:50 PM77 °FBroken clouds.3 mph61%29.92 "HgN/A
7:20 PM77 °FSprinkles. Partly sunny.8 mph57%29.92 "HgN/A
6:50 PM79 °FPartly sunny.8 mph58%29.92 "HgN/A
6:20 PM79 °FPartly sunny.6 mph51%29.92 "HgN/A
5:50 PM79 °FPartly sunny.7 mph54%29.89 "HgN/A
5:20 PM79 °FPartly sunny.8 mph54%29.92 "HgN/A
4:50 PM79 °FPartly sunny.9 mph54%29.92 "HgN/A
4:20 PM79 °FPassing clouds.8 mph54%29.95 "HgN/A
3:50 PM79 °FPassing clouds.10 mph54%29.95 "HgN/A
3:20 PM77 °FPassing clouds.12 mph57%29.95 "HgN/A
2:50 PM77 °FPassing clouds.10 mph57%29.95 "HgN/A
2:20 PM77 °FScattered clouds.9 mph57%29.95 "HgN/A
1:50 PM75 °FScattered clouds.9 mph65%29.95 "HgN/A
1:20 PM75 °FPartly sunny.7 mph61%29.95 "HgN/A
12:50 PM73 °FPartly sunny.7 mph65%29.98 "HgN/A
12:20 PM73 °FScattered clouds.9 mph65%29.98 "HgN/A
11:50 AM72 °FScattered clouds.7 mph69%29.98 "HgN/A
11:20 AM72 °FBroken clouds.5 mph69%29.98 "HgN/A
Weather by CustomWeather, © 2014

See weather overviewHow to use our weather pages